Location: Byhalia Creek
(34.8270°N, 89.8040°W)
Time: 08:13:25
(UTC+00:00)

Sich 1 - Pass Details

Date: 22 April 2026
Orbit: 570 x 598 km, 82.5° (Epoch: 15 May)

Event Time Altitude Azimuth Distance (km) Brightness Sun altitude
Rises 10:26:05 0° 341° (NNW) 2,781 6.5 -11.0°
Reaches altitude 10° 10:28:27 10° 331° (NNW) 1,877 5.5 -10.6°
Maximum altitude 10:32:05 31° 269° (W) 1,015 3.7 -9.9°
Drops below altitude 10° 10:35:43 10° 207° (SSW) 1,863 5.1 -9.2°
Sets 10:38:04 0° 197° (SSW) 2,757 6.0 -8.7°
